EHI
1 1 0 0 0 0 0 0 0 0 0 0 0 0 0 0 0 0 0 0 0 0 0 0 0 0 0 0 0 0 0 0 0 0 0 0 0 0 0 0 0 0 0
1 0 0 0 0 0 0 0 0 0 0 0 0 0 0 0 0 0 0 0 0 0 0 0 0 0 0 0 0 0 0 0 0 0 0 0 0 0 0 0 0 0 0
0 0 0 0 0 0 0 0 0 0 0 0 0 0 0 0 0 0 0 0 0 0 0 0 0 0 0 0 0 0 0 0 0 0 0 0 0 0 0 0 0 0 0
0 0 0 0 0 0 0 0 0 0 0 0 0 0 0 0 0 0 0 0 0 0 0 0 0 0 0 0 0 0 0 0 0 0 0 0 0 0 0 0 0 0 0
0 0 0 0 0 0 0 0 0 0 0 0 0 0 0 0 0 0 0 0 0 0 0 0 0 0 0 0 0 0 0 0 0 0 0 0 0 0 0 0 0 0 0
0 0 0 0 0 0 0 0 0 0 0 0 0 0 0 0 0 0 0 0 0 0 0 0 0 0 0 0 0 0 0 0 0 0 0 0 0 0 0 0 0 0 0
0 0 0 0 0 0 0 0 0 0 0 0 0 0 0 0 0 0 0 0 0 0 0 0 0 0 0 0 0 0 0 0 0 0 0 0 0 0 0 0 0 0 0
0 0 0 0 0 0 0 0 0 0 0 0 0 0 0 0 0 0 0 0 0 0 0 0 0 0 0 0 0 0 0 0 0 0 0 0 0 0 0 0 0 0 0
0 0 0 0 0 0 0 0 0 0 0 0 0 0 0 0 0 0 0 0 0 0 0 0 0 0 0 0 0 0 0 0 0 0 0 0 0 0 0 0 0 0 0
0 0 0 0 0 0 0 0 0 0 0 0 0 0 0 0 0 0 0 0 0 0 0 0 0 0 0 0 0 0 0 0 0 0 0 0 0 0 0 0 0 0 0
0 0 0 0 0 0 0 0 0 0 0 0 0 0 0 0 0 0 0 0 0 0 0 0 0 0 0 0 0 0 0 0 0 0 0 0 0 0 0 0 0 0 0
0 0 0 0 0 0 0 0 0 0 0 0 0 0 0 0 0 0 0 0 0 0 0 0 0 0 0 0 0 0 0 0 0 0 0 0 0 0 0 0 0 0 0
0 0 0 0 0 0 0 0 0 0 0 0 0 0 0 0 0 0 0 0 0 0 0 0 0 0 0 0 0 0 0 0 0 0 0 0 0 0 0 0 0 0 0
0 0 0 0 0 0 0 0 0 0 0 0 0 0 0 0 0 0 0 0 0 0 0 0 0 0 0 0 0 0 0 0 0 0 0 0 0 0 0 0 0 0 0
0 0 0 0 0 0 0 0 0 0 0 0 0 0 0 0 0 0 0 0 0 0 0 0 0 0 0 0 0 0 0 0 0 0 0 0 0 0 0 0 0 0 0
0 0 0 0 0 0 0 0 0 0 0 0 0 0 0 0 0 0 0 0 0 0 0 0 0 0 0 0 0 0 0 0 0 0 0 0 0 0 0 0 0 0 0
0 0 0 0 0 0 0 0 0 0 0 0 0 0 0 0 0 0 0 0 0 0 0 0 0 0 0 0 0 0 0 0 0 0 0 0 0 0 0 0 0 0 0
0 0 0 0 0 0 0 0 0 0 0 0 0 0 0 0 0 0 0 0 0 0 0 0 0 0 0 0 0 0 0 0 0 0 0 0 0 0 0 0 0 0 0
0 0 0 0 0 0 0 0 0 0 0 0 0 0 0 0 0 0 0 0 0 0 0 0 0 0 0 0 0 0 0 0 0 0 0 0 0 0 0 0 0 0 0
0 0 0 0 0 0 0 0 0 0 0 0 0 0 0 0 0 0 0 0 0 0 0 0 0 0 0 0 0 0 0 0 0 0 0 0 0 0 0 0 0 0 0
0 0 0 0 0 0 0 0 0 0 0 0 0 0 0 0 0 0 0 0 0 0 0 0 0 0 0 0 0 0 0 0 0 0 0 0 0 0 0 0 0 0 0
0 0 0 0 0 0 0 0 0 0 0 0 0 0 0 0 0 0 0 0 0 0 0 0 0 0 0 0 0 0 0 0 0 0 0 0 0 0 0 0 0 0 0
0 0 0 0 0 0 0 0 0 0 0 0 0 0 0 0 0 0 0 0 0 0 0 0 0 0 0 0 0 0 0 0 0 0 0 0 0 0 0 0 0 0 0
0 0 0 0 0 0 0 0 0 0 0 0 0 0 0 0 0 0 0 0 0 0 0 0 0 0 0 0 0 0 0 0 0 0 0 0 0 0 0 0 0 0 0
0 0 0 0 0 0 0 0 0 0 0 0 0 0 0 0 0 0 0 0 0 0 0 0 0 0 0 0 0 0 0 0 0 0 0 0 0 0 0 0 0 0 0
0 0 0 0 0 0 0 0 0 0 0 0 0 0 0 0 0 0 0 0 0 0 0 0 0 0 0 0 0 0 0 0 0 0 0 0 0 0 0 0 0 0 0
Wind_Speed
7 6 6 6 5 5 5 5 5 4 4 5 4 4 3 3 3 3 2 2 3 2 2 3 3 2 2 1 1 1 2 2 3 3 2 2 2 3 3 3 3 3 4
6 6 6 6 5 5 5 5 5 4 4 5 4 4 4 4 4 4 3 3 3 3 2 3 3 2 2 2 2 2 2 2 3 4 3 2 3 3 3 4 4 4 3
5 5 5 5 5 5 4 4 4 4 4 4 4 4 4 4 4 4 4 3 3 3 3 3 3 3 3 2 2 3 2 2 2 3 4 3 2 3 3 4 4 4 4
5 5 5 5 5 5 4 4 4 4 4 4 4 4 4 3 4 3 3 3 3 3 3 3 3 4 4 3 3 3 3 3 2 3 3 3 3 3 2 3 4 3 4
5 5 4 4 4 4 4 3 3 3 4 3 3 3 3 3 3 4 4 3 3 3 3 3 4 5 5 5 4 3 3 3 3 3 4 3 3 3 3 3 4 4 4
5 5 4 4 4 4 4 3 3 3 3 3 3 3 3 3 5 6 5 3 3 4 4 4 4 4 6 7 8 8 7 5 5 4 4 5 6 4 3 3 4 4 5
4 4 4 4 4 4 4 3 3 3 3 3 3 3 3 4 6 6 6 4 4 4 4 4 4 4 6 4 6 8 8 11 10 7 6 7 6 5 4 5 5 5 7
4 4 4 4 4 3 3 3 3 3 3 3 3 3 3 4 6 6 6 4 3 4 4 5 5 5 5 5 4 5 5 6 7 6 6 6 5 5 5 5 6 6 6
4 4 4 4 4 3 3 3 3 3 2 2 3 3 3 4 6 7 6 3 3 4 4 5 5 5 7 8 5 5 6 6 7 9 10 9 10 11 8 4 4 4 6
3 3 3 3 3 3 3 3 2 2 2 2 2 3 4 4 6 7 7 3 3 3 3 4 7 8 9 9 5 5 6 6 4 5 6 7 6 8 10 6 4 5 5
3 3 2 2 3 3 3 2 2 2 2 2 2 3 3 4 6 8 8 3 4 3 4 4 4 8 9 9 8 5 8 7 4 4 4 4 4 4 4 4 4 5 6
3 2 2 2 2 2 2 2 2 2 2 2 2 3 3 3 5 6 9 8 6 4 4 4 4 7 9 9 7 8 10 8 3 3 4 4 4 4 4 4 5 5 6
2 2 1 1 1 1 2 2 1 2 2 2 2 3 3 2 4 7 9 9 9 5 4 6 8 9 8 7 9 10 8 4 3 4 5 5 4 4 4 3 4 4 5
2 1 1 1 1 1 1 1 2 2 2 3 3 3 3 3 3 3 3 4 5 5 4 6 8 8 6 6 6 5 4 4 4 5 4 4 3 3 3 3 3 3 4
1 1 1 0 0 0 1 1 2 2 3 4 3 3 4 4 5 7 5 3 3 4 3 2 3 3 3 3 3 4 3 3 4 3 4 4 3 4 4 3 3 3 4
1 1 0 0 0 0 1 1 2 3 5 6 7 6 5 7 8 8 8 8 8 8 5 4 4 4 4 4 4 4 4 4 4 4 4 4 4 4 4 3 3 4 4
1 1 1 1 1 1 1 1 2 3 4 5 6 7 7 8 8 9 8 8 9 8 5 4 5 5 5 4 4 4 4 4 4 4 4 4 4 4 4 4 4 4 4
1 2 2 1 1 1 1 2 2 2 3 3 4 6 7 7 7 7 7 6 5 4 4 4 5 5 4 4 4 4 4 3 3 4 4 4 4 4 4 4 4 5 4
1 1 1 1 1 1 2 2 2 3 3 3 3 4 5 6 6 7 6 3 3 4 4 4 4 4 4 4 4 4 4 4 4 4 4 4 4 4 4 4 4 6 5
2 3 3 2 2 2 2 2 2 3 3 3 3 3 3 3 3 4 3 3 3 4 4 4 4 4 4 4 4 4 4 4 4 4 4 4 4 4 5 5 5 4 4
2 2 4 3 2 2 2 2 3 3 3 4 4 4 6 4 4 4 4 4 4 4 4 4 4 4 3 3 3 4 5 4 4 4 4 4 4 4 4 4 4 4 4
2 2 2 2 2 3 3 3 3 3 4 5 4 4 8 4 3 4 4 4 4 3 3 3 4 3 3 4 4 4 4 4 4 4 4 4 4 4 4 4 4 4 4
2 3 3 3 3 4 4 3 3 3 4 4 4 4 4 4 4 4 4 4 4 3 3 3 4 4 3 4 4 4 5 5 4 4 4 4 4 4 4 4 4 4 4
2 3 3 3 3 3 3 3 4 4 4 4 4 4 4 4 4 4 4 4 3 3 3 3 4 5 6 5 4 4 4 4 4 4 5 5 5 4 4 4 4 4 4
3 3 3 3 3 3 3 4 4 4 4 4 5 4 4 5 4 4 4 3 4 4 4 4 4 4 6 6 5 5 6 8 7 5 5 5 5 5 4 4 4 4 4
3 3 3 3 3 3 4 4 4 4 4 5 5 5 5 5 4 4 4 3 3 4 4 4 4 5 6 5 6 7 8 9 9 9 5 4 5 4 4 4 5 4 4
Wind_Direction
151 152 152 154 153 150 152 152 152 153 157 161 166 167 167 168 164 162 171 181 181 187 198 196 200 199 190 205 222 234 244 230 254 277 269 266 272 285 290 285 279 273 270
149 149 149 150 146 145 152 155 153 158 165 169 170 173 176 178 178 180 187 190 186 192 206 205 205 202 203 211 217 229 239 237 239 268 280 273 265 269 276 282 284 277 266
142 144 144 146 145 148 150 151 153 158 165 169 170 178 184 183 186 190 190 192 197 200 203 214 214 200 220 224 223 230 240 250 241 253 271 276 277 272 278 279 276 278 278
137 142 149 152 153 154 153 155 164 166 169 176 180 185 190 190 191 190 187 194 203 206 207 216 220 212 217 219 231 237 240 245 245 250 264 275 276 271 265 275 287 279 278
138 144 150 146 142 144 150 159 167 169 172 177 180 184 185 191 195 189 193 201 205 212 219 224 224 225 228 229 231 230 232 241 245 250 261 271 271 269 264 265 277 286 279
143 148 145 142 143 150 156 161 167 171 172 174 187 189 195 210 205 210 210 204 207 213 225 231 231 234 240 246 248 247 240 239 240 246 257 258 263 262 266 266 274 284 285
144 144 145 145 151 161 162 164 177 180 174 181 193 194 203 210 218 223 224 217 214 222 226 229 240 237 246 241 252 260 261 260 253 246 249 253 259 257 258 270 268 268 269
144 146 148 150 158 164 164 174 186 181 180 187 197 200 207 220 226 232 233 230 225 230 229 227 230 235 235 239 241 249 254 257 256 252 246 252 256 253 243 252 263 276 277
138 143 150 154 160 165 171 181 185 178 186 194 199 202 212 229 233 238 242 225 232 241 240 235 234 233 241 246 246 247 258 264 265 259 257 260 265 268 267 269 270 277 282
139 136 144 154 164 175 179 182 181 179 188 197 211 215 219 230 237 244 245 226 234 246 250 244 243 243 245 247 242 237 250 260 259 265 265 268 265 265 266 252 244 258 273
125 130 145 159 171 178 174 171 169 175 186 208 226 238 233 234 241 245 247 238 226 238 247 248 246 249 251 252 252 244 252 263 257 254 261 265 263 257 255 249 243 242 255
121 132 147 163 171 160 160 164 169 174 191 222 233 251 249 242 244 245 247 250 249 242 245 246 245 253 256 258 259 257 265 273 261 254 256 257 254 252 253 251 249 249 249
113 122 140 149 157 161 167 172 181 192 202 225 230 242 252 248 242 248 250 253 255 253 247 252 258 259 261 262 258 260 265 256 244 249 252 253 246 246 252 261 264 261 266
107 114 130 136 150 159 183 190 196 210 217 229 234 245 258 258 248 239 238 245 252 258 257 257 263 263 260 255 257 256 245 239 239 243 248 254 252 250 252 253 261 266 274
91 94 74 86 187 209 241 242 238 239 231 240 240 237 246 254 251 251 254 245 238 242 258 256 250 250 245 246 248 246 240 240 248 244 247 256 257 254 255 248 250 256 260
64 51 33 338 274 249 264 315 312 275 275 270 266 264 266 264 266 264 266 266 266 261 266 244 242 239 239 242 244 246 240 237 238 239 242 245 250 253 257 253 249 249 258
23 314 295 286 276 265 258 258 295 312 301 289 279 272 270 268 266 265 267 268 264 263 258 241 240 238 239 238 238 239 243 239 235 235 241 243 243 247 250 252 248 246 252
349 312 295 274 267 266 265 264 264 277 297 303 295 283 279 275 273 271 270 275 262 256 241 239 241 239 237 237 238 241 243 240 235 237 240 238 236 241 246 249 248 246 252
328 305 295 285 279 274 271 270 269 267 273 283 294 294 287 286 282 275 276 258 249 254 250 249 245 242 239 236 237 238 239 239 237 236 239 239 236 239 247 248 248 252 255
321 311 309 299 289 286 282 278 277 275 275 277 278 281 291 292 279 276 271 256 251 253 252 251 249 245 242 239 237 237 240 240 238 238 239 238 236 237 244 247 247 249 252
313 310 311 305 293 286 282 280 279 277 276 278 278 277 283 280 267 268 267 259 253 252 253 253 251 248 246 243 240 241 243 245 240 239 237 237 236 238 243 246 245 247 250
305 299 293 287 290 291 289 283 283 282 281 281 285 285 282 281 270 268 267 265 260 255 253 252 252 245 239 239 240 242 247 250 245 240 239 240 239 240 244 244 244 247 245
299 296 294 291 291 295 298 290 283 281 281 283 286 289 286 278 273 271 270 270 268 265 259 254 254 253 247 240 236 237 242 246 242 234 236 239 239 239 240 241 240 244 246
289 287 287 288 288 285 285 287 287 285 285 288 291 291 289 285 282 279 277 274 271 270 264 259 255 253 253 253 248 243 243 243 238 234 234 237 241 242 239 243 241 240 244
291 289 287 284 283 283 284 286 289 292 294 295 294 293 293 291 287 285 282 276 274 273 272 269 264 256 254 254 254 252 251 251 248 239 231 231 236 236 237 241 239 240 242
291 289 287 285 283 284 286 289 290 293 293 292 290 289 290 290 289 288 286 284 284 283 280 275 267 263 260 256 253 254 257 257 253 249 240 229 228 231 230 235 233 235 236